Weather History for Lorain / Elyria, OH

Change the Weather History Date:

Saturday, January 12, 2013

  Actual Average (KCLE) Record (KCLE)
Temperature  
Mean Temperature 54 °F 28 °F  
Max Temperature 61 °F 34 °F 65 °F (1916)
Min Temperature 48 °F 22 °F -9 °F (1886)
Degree Days  
Heating Degree Days 10 37  
Month to date heating degree days 443  
Since 1 July heating degree days 2550  
Cooling Degree Days 0 0  
Month to date cooling degree days 0  
Year to date cooling degree days 0  
Growing Degree Days 4 (Base 50)    
Moisture  
Dew Point 49 °F    
Average Humidity 84    
Maximum Humidity 94    
Minimum Humidity 70    
Precipitation  
Precipitation 0.03 in 0.09 in 1.00 in (1960)
Month to date precipitation 1.15  
Year to date precipitation 1.15  
Snow  
Snow 0.00 in 0.60 in - ()
Month to date snowfall 7.0  
Since 1 July snowfall 25.6  
Snow Depth -    
Sea Level Pressure  
Sea Level Pressure 29.95 in    
Wind  
Wind Speed 9 mph (South)    
Max Wind Speed 15 mph    
Max Gust Speed -    
Visibility 9 miles    
Events Rain    
T = Trace of Precipitation, MM = Missing Value Source: NWS Daily Summary

Daily Weather History Graph

Daily Weather History Graph

Search for Another Location

Airport:

Trip Planner

Search our weather history database for the weather conditions in past years. The results will help you decide how hot, cold, wet, or windy it might be!

Date:

Astronomy

Jan. 12, 2013 Rise Set
Actual Time 7:53 AM EST 5:21 PM EST
Civil Twilight 7:22 AM EST 5:51 PM EST
Nautical Twilight 6:48 AM EST 6:26 PM EST
Astronomical Twilight 6:15 AM EST 6:59 PM EST
Moon 8:10 AM EST (1/12) 6:50 PM EST (1/12)
Length of Visible Light 10h 29m
Length of Day
9h 27m
New Moon, 1% of the Moon is Illuminated
Jan 12
New Moon
Jan 18
First Quarter
Jan 26
Full
Feb 3
Last Quarter
Feb 10
New

Hourly Weather History & Observations

Time (EST) Temp. Dew Point Humidity Pressure Visibility Wind Dir Wind Speed Gust Speed Precip Events Conditions
12:53 AM 48.9 °F 45.0 °F 86% 29.93 in 9.0 mi South 9.2 mph - N/A   Clear
1:53 AM 48.0 °F 44.1 °F 86% 29.92 in 9.0 mi South 8.1 mph - N/A   Clear
3:53 AM 48.9 °F 44.1 °F 83% 29.94 in 10.0 mi South 11.5 mph - N/A   Clear
4:53 AM 48.0 °F 44.1 °F 86% 29.95 in 10.0 mi South 9.2 mph - N/A   Clear
5:53 AM 48.0 °F 44.1 °F 86% 29.95 in 10.0 mi South 10.4 mph - N/A   Clear
6:53 AM 48.0 °F 44.1 °F 86% 29.96 in 8.0 mi South 9.2 mph - N/A   Clear
7:53 AM 48.0 °F 45.0 °F 89% 29.97 in 8.0 mi SSW 6.9 mph - N/A   Clear
8:20 AM 50.0 °F 46.4 °F 87% 29.97 in 10.0 mi SSW 8.1 mph - N/A   Partly Cloudy
8:53 AM 51.1 °F 46.9 °F 86% 29.99 in 9.0 mi SSW 10.4 mph - N/A   Clear
9:53 AM 52.0 °F 48.0 °F 86% 30.01 in 10.0 mi SSW 6.9 mph - N/A   Clear
10:53 AM 57.0 °F 51.1 °F 81% 30.01 in 10.0 mi SW 13.8 mph - N/A   Clear
11:53 AM 59.0 °F 51.1 °F 75% 30.01 in 10.0 mi WSW 15.0 mph - N/A   Partly Cloudy
12:53 PM 59.0 °F 52.0 °F 78% 29.97 in 10.0 mi SW 12.7 mph - N/A   Clear
1:53 PM 60.1 °F 51.1 °F 72% 29.96 in 10.0 mi SSW 12.7 mph - N/A   Clear
2:53 PM 61.0 °F 52.0 °F 72% 29.98 in 10.0 mi SSW 12.7 mph - N/A   Clear
3:53 PM 61.0 °F 51.1 °F 70% 29.99 in 10.0 mi SW 13.8 mph - N/A   Clear
4:27 PM 59.0 °F 51.8 °F 77% 30.00 in 10.0 mi WSW 9.2 mph - N/A   Mostly Cloudy
4:53 PM 57.9 °F 51.1 °F 78% 29.99 in 10.0 mi SW 6.9 mph - N/A   Scattered Clouds
5:53 PM 55.9 °F 50.0 °F 80% 29.98 in 10.0 mi South 4.6 mph - N/A   Partly Cloudy
6:53 PM 51.1 °F 48.0 °F 89% 29.97 in 8.0 mi SSE 4.6 mph - N/A   Clear
8:53 PM 53.1 °F 50.0 °F 89% 29.93 in 7.0 mi SSE 6.9 mph - N/A   Partly Cloudy
9:40 PM 55.4 °F 51.8 °F 88% 29.91 in 8.0 mi SSE 6.9 mph - N/A   Mostly Cloudy
9:53 PM 54.0 °F 51.1 °F 90% 29.91 in 7.0 mi SSE 6.9 mph - N/A   Overcast
10:32 PM 55.4 °F 51.8 °F 88% 29.88 in 7.0 mi SE 5.8 mph - N/A   Mostly Cloudy
10:46 PM 55.4 °F 53.6 °F 94% 29.87 in 7.0 mi SE 8.1 mph - 0.00 in Rain Light Rain
10:53 PM 55.9 °F 53.1 °F 90% 29.86 in 7.0 mi SSE 6.9 mph - 0.00 in   Mostly Cloudy
11:36 PM 57.2 °F 53.6 °F 88% 29.86 in 6.0 mi South 9.2 mph - 0.01 in Rain Light Rain
11:53 PM 57.9 °F 55.0 °F 90% 29.85 in 4.0 mi South 8.1 mph - 0.03 in Rain Light Rain